www.pogodaiklimat.ru

Погода и климат >> Архив погоды >> Кипр >> Akrotiri


ПОГОДА в Akrotiri

  • Прогноз погоды в Akrotiri
  • Монитор погоды в Akrotiri
  • Климат города

АРХИВ ПОГОДЫ в Akrotiri

Время (UTC), дата Ветер
(напр.,м/с)
 
Видим.   Явления Облачность Т
(С)
Тd
(С)
f
(%)
Тe
(С)
Тes
(С)
Комфортность P
(гПа)
Po
(гПа)
Тmin
(С)
Tmax
(С)
R
(мм)
R24
(мм)
S
(см)
16 9.08 З 7 25 км 1/0
[Ci fib]
+28.3 +24.3 79 +40 +40 очень
душно
1007.5 1004.5
17 9.08 З 6 25 км ясно +27.2 +24.4 85 +38 +38 очень
душно
1007.4 1004.4
18 9.08 З 6 30 км ясно +26.9 +24.3 86 +38 +38 очень
душно
1007.5 1004.6 +31.9
19 9.08 З 5 30 км ясно +26.7 +24.2 86 +37 +37 очень
душно
1007.8 1004.8
20 9.08 З 5 30 км ясно +26.5 +24.3 88 +37 +37 очень
душно
1007.9 1004.9
21 9.08 З 6 25 км ясно +26.4 +24.2 88 +37 +37 очень
душно
1008.0 1005.1
22 9.08 З 5 25 км ясно +25.9 +24.1 90 +36 +36 очень
душно
1008.0 1005.0
23 9.08 З 4 25 км ясно +25.8 +24.1 90 +36 +36 очень
душно
1007.8 1004.9
00 10.08 З 3 25 км ясно +25.4 +23.8 91 +35 +35 очень
душно
1007.6 1004.6
01 10.08 З 2 25 км ясно +24.9 +23.3 91 +33 +33 очень
душно
1007.5 1004.5
02 10.08 З 3 25 км ясно +24.4 +20.0 76 +30 +30 очень
душно
1007.5 1004.5
03 10.08 СЗ 2 30 км ясно +23.5 +20.0 81 +29 +29 душно 1007.7 1004.7
04 10.08 СЗ 1 40 км ясно +23.7 +17.8 70 +28 +29 душно 1007.8 1004.8
05 10.08 В 1 30 км ясно +26.8 +19.2 63 +32 +36 очень
душно
1008.0 1005.0
06 10.08 В 1 25 км ясно +29.3 +19.0 54 +35 +43 очень
душно
1007.8 1004.9 +22.9
07 10.08 ЮЗ 3 н/о н/о +29.4 +21.4 62 +37 +37 очень
душно
1008.1 1005.1
08 10.08 З 5 18 км 1/1 660 м
[Cu hum]
+29.2 +23.7 72 +40 +48 очень
душно
1008.0 1005.0
09 10.08 ЮЗ 6 15 км 1/1 900 м
[Cu hum]
+29.9 +22.6 65 +39 +46 очень
душно
1007.7 1004.7
10 10.08 ЮЗ 6 18 км 1/1 900 м
[Cu hum]
+30.5 +23.1 65 +41 +47 опасность
перегрева
1007.3 1004.4
11 10.08 З 6 18 км 1/1 1200 м
[Cu hum]
+30.3 +23.6 67 +41 +48 опасность
перегрева
1007.0 1004.1
12 10.08 З 7 20 км 1/1 900 м
[Cu hum]
+30.3 +23.9 69 +42 +45 опасность
перегрева
1006.7 1003.8
13 10.08 З 8 18 км 1/1 1500 м
[Cu hum]
+30.3 +23.4 67 +41 +43 опасность
перегрева
1006.6 1003.6
14 10.08 З 7 18 км 1/1 1500 м
[Cu hum]
+30.1 +23.4 67 +41 +42 опасность
перегрева
1006.3 1003.4
15 10.08 З 7 18 км 1/1 1500 м
[Cu hum]
+29.9 +24.1 71 +41 +42 опасность
перегрева
1005.9 1002.9
16 10.08 З 7 15 км ясно +28.5 +24.5 79 +40 +40 очень
душно
1005.8 1002.9
17 10.08 З 5 15 км ясно +27.5 +24.4 83 +39 +39 очень
душно
1005.6 1002.7
18 10.08 З 5 15 км ясно +27.2 +24.4 85 +38 +38 очень
душно
1006.0 1003.1 +31.2
19 10.08 З 4 15 км ясно +26.8 +24.6 88 +38 +38 очень
душно
1006.2 1003.2
20 10.08 З 4 15 км ясно +26.7 +24.4 87 +37 +37 очень
душно
1006.1 1003.2
21 10.08 З 4 15 км ясно +26.6 +24.2 87 +37 +37 очень
душно
1006.1 1003.2
22 10.08 З 4 15 км ясно +26.4 +24.1 87 +37 +37 очень
душно
1005.9 1002.9
23 10.08 З 4 15 км ясно +26.2 +24.0 88 +36 +36 очень
душно
1005.8 1002.8
00 11.08 З 4 15 км ясно +26.0 +23.7 87 +35 +35 очень
душно
1005.6 1002.6
01 11.08 З 3 15 км 1/1 420 м
[St]
+25.6 +23.8 90 +35 +35 очень
душно
1005.5 1002.5
02 11.08 З 2 18 км 3/3 540 м
[Sc]
+25.1 +23.3 90 +34 +34 очень
душно
1005.5 1002.5
03 11.08 З 2 12 км 1/1 540 м
[Sc]
+25.1 +22.9 88 +33 +33 очень
душно
1005.6 1002.6
04 11.08 СЗ 1 12 км 4/4 540 м
[Sc]
+25.2 +23.0 88 +34 +34 очень
душно
1005.7 1002.7
05 11.08 З 1 15 км 1/1 540 м
[Sc]
+26.7 +23.1 81 +36 +39 очень
душно
1005.8 1002.8
06 11.08 З 4 15 км 1/1 600 м
[Sc]
+27.9 +22.7 73 +37 +42 очень
душно
1006.1 1003.1 +25.0
07 11.08 ЮЗ 5 15 км 1/1 600 м
[Sc]
+29.3 +22.5 67 +39 +45 очень
душно
1006.3 1003.4
08 11.08 ЮЗ 5 20 км 1/1 660 м
[Sc]
+29.7 +22.5 65 +39 +46 очень
душно
1006.4 1003.4
09 11.08 ЮЗ 5 15 км 1/1 660 м
[Sc Ac trans]
+29.8 +23.0 67 +40 +48 очень
душно
1006.1 1003.2
10 11.08 ЮЗ 6 18 км ясно +30.1 +22.3 63 +39 +48 очень
душно
1005.9 1003.0
11 11.08 ЮЗ 6 15 км 1/0
[Ac trans]
+30.3 +22.0 61 +39 +45 очень
душно
1005.8 1002.9
12 11.08 ЮЗ 6 15 км 1/0 2000 м
[Ac cuf]
+30.3 +22.8 64 +40 +45 очень
душно
1005.7 1002.8
13 11.08 ЮЗ 5 15 км 1/0
[Ac trans]
+29.9 +22.7 65 +39 +44 очень
душно
1005.4 1002.4
14 11.08 З 5 15 км 1/1 1500 м
[Sc]
+30.4 +23.2 65 +41 +43 опасность
перегрева
1005.2 1002.3
15 11.08 З 6 12 км ясно +29.7 +23.4 69 +40 +41 очень
душно
1005.0 1002.0
16 11.08 ЮЗ 5 12 км 1/0
[Ci fib]
+29.2 +23.7 72 +40 +40 очень
душно
1005.0 1002.1
17 11.08 З 4 12 км 1/0
[Ci fib]
+28.0 +23.9 78 +39 +39 очень
душно
1005.3 1002.3
18 11.08 З 4 12 км ясно +27.8 +24.2 81 +39 +39 очень
душно
1005.7 1002.7 +31.2
19 11.08 З 3 12 км ясно +27.5 +24.6 84 +39 +39 очень
душно
1006.0 1003.1
20 11.08 З 3 12 км 1/1 450 м
[Cu Sc]
+27.3 +24.6 85 +39 +39 очень
душно
1006.0 1003.0
21 11.08 З 3 12 км 1/1 450 м
[St]
+27.2 +24.9 87 +39 +39 очень
душно
1005.9 1003.0
22 11.08 З 3 12 км 1/1 450 м
[St]
+26.8 +24.8 89 +38 +38 очень
душно
1005.7 1002.7
23 11.08 З 3 12 км 3/3 480 м
[Sc]
+26.8 +24.5 87 +38 +38 очень
душно
1005.3 1002.3
00 12.08 З 3 12 км 1/1 450 м
[Sc]
+26.5 +24.6 89 +37 +37 очень
душно
1005.0 1002.0
01 12.08 СЗ 1 12 км 1/1 480 м
[Sc]
+25.4 +24.6 95 +36 +36 очень
душно
1004.7 1001.8
02 12.08 З 1 12 км 1/1 450 м
[Sc]
+25.0 +23.1 89 +33 +33 очень
душно
1004.7 1001.7
03 12.08 З 1 12 км 1/1 480 м
[Sc]
+24.8 +23.3 91 +33 +33 очень
душно
1004.8 1001.8
04 12.08 З 1 10 км 1/1 500 м
[Cu hum]
+24.9 +23.1 90 +33 +34 очень
душно
1005.1 1002.1
05 12.08 С 1 15 км 4/4 500 м
[Sc]
+26.3 +23.0 82 +35 +37 очень
душно
1005.4 1002.5
06 12.08 ЮЗ 3 15 км 1/1 500 м
[Sc]
+28.0 +23.3 76 +38 +43 очень
душно
1005.3 1002.4 +24.7
07 12.08 ЮЗ 4 15 км 1/1 500 м
[Sc]
+29.1 +23.9 74 +40 +48 очень
душно
1005.4 1002.4
08 12.08 ЮЗ 5 15 км ясно +29.5 +23.1 69 +40 +48 очень
душно
1005.4 1002.5
09 12.08 ЮЗ 6 15 км 1/1 600 м
[Sc]
+29.8 +23.4 69 +40 +48 очень
душно
1005.5 1002.6
10 12.08 ЮЗ 6 18 км 1/1 1200 м
[Cu hum]
+30.8 +23.6 66 +42 +49 опасность
перегрева
1005.4 1002.5
11 12.08 ЮЗ 6 18 км 1/1 1500 м
[Cu med, cong Ci ing]
+30.5 +23.4 66 +41 +47 опасность
перегрева
1005.4 1002.5
12 12.08 ЮЗ 6 15 км 1/1 600 м
[Cu hum Ac trans]
+30.8 +23.7 66 +42 +47 опасность
перегрева
1005.1 1002.1
13 12.08 ЮЗ 6 15 км 1/1 600 м
[Cu hum Ac cuf]
+29.9 +23.7 69 +41 +44 опасность
перегрева
1005.0 1002.1
14 12.08 З 6 12 км 3/0
[Ac trans]
+30.3 +24.3 70 +42 +44 опасность
перегрева
1004.8 1001.9
15 12.08 З 6 10 км 1/0
[Ac trans]
+29.9 +24.6 73 +42 +43 опасность
перегрева
1004.5 1001.6
16 12.08 З 5 10 км 3/1 600 м
[Sc Ac trans]
+29.3 +24.7 76 +42 +42 опасность
перегрева
1004.3 1001.4
17 12.08 З 5 10 км 3/1 600 м
[Sc Ac trans]
+28.4 +24.7 80 +40 +40 очень
душно
1004.3 1001.4
18 12.08 З 5 10 км 3/1 600 м
[Sc Ac trans]
+27.8 +25.1 85 +40 +40 очень
душно
1004.6 1001.7 +31.8
19 12.08 З 5 10 км 1/0
[Ac trans]
+27.5 +25.2 87 +40 +40 очень
душно
1004.8 1001.9
20 12.08 З 5 10 км 1/1 600 м
[Sc]
+27.2 +24.9 87 +39 +39 очень
душно
1004.9 1001.9
21 12.08 З 4 12 км ясно +27.0 +24.9 88 +39 +39 очень
душно
1004.7 1001.7
22 12.08 З 4 10 км ясно +26.7 +24.7 89 +38 +38 очень
душно
1004.3 1001.3
23 12.08 З 4 12 км ясно +26.4 +24.7 90 +37 +37 очень
душно
1003.9 1000.9
00 13.08 З 2 12 км ясно +25.7 +22.6 83 +34 +34 очень
душно
1004.0 1001.0
01 13.08 З 2 12 км ясно +25.0 +22.0 83 +32 +32 очень
душно
1004.1 1001.1
02 13.08 З 3 12 км ясно +25.0 +23.2 90 +33 +33 очень
душно
1004.0 1001.0
03 13.08 З 3 9000 м мгла 1/1 1200 м
[Sc Ac trans]
+24.9 +22.3 85 +32 +32 очень
душно
1004.1 1001.1
04 13.08 З 2 10 км 5/5 540 м
[Sc]
+24.6 +21.1 81 +31 +31 очень
душно
1004.6 1001.7
05 13.08 СЗ 3 12 км 4/4 600 м
[Cu hum]
+26.4 +21.4 74 +34 +35 очень
душно
1005.0 1002.0
06 13.08 З 4 15 км 4/4 660 м
[Cu hum]
+28.2 +22.7 72 +37 +40 очень
душно
1005.4 1002.4 +24.1
07 13.08 ЮЗ 4 15 км 3/3 720 м
[Cu hum]
+29.3 +22.1 65 +38 +44 очень
душно
1005.6 1002.7
08 13.08 ЮЗ 5 18 км 3/3 720 м
[Cu hum]
+30.0 +22.5 64 +39 +45 очень
душно
1005.8 1002.9
09 13.08 ЮЗ 5 18 км 1/1 600 м
[Cu hum]
+29.8 +22.6 65 +39 +49 очень
душно
1006.0 1003.0
10 13.08 ЮЗ 6 18 км 1/1 1500 м
[Cu med, cong]
+30.3 +22.6 63 +40 +47 очень
душно
1006.0 1003.1
11 13.08 ЮЗ 6 18 км 1/1 750 м
[Cu med, cong]
+30.5 +22.8 64 +40 +47 очень
душно
1006.1 1003.2
12 13.08 ЮЗ 6 15 км 1/1 600 м
[Cu hum]
+30.2 +23.3 67 +41 +46 опасность
перегрева
1005.7 1002.8
13 13.08 ЮЗ 6 15 км 3/3 600 м
[Cu hum]
+30.6 +24.1 68 +42 +45 опасность
перегрева
1005.6 1002.7
14 13.08 ЮЗ 7 15 км 1/1 600 м
[Cu hum]
+30.3 +23.9 69 +42 +43 опасность
перегрева
1005.4 1002.4
15 13.08 З 6 15 км 1/1 600 м
[Cu hum]
+29.9 +24.1 71 +41 +42 опасность
перегрева
1005.2 1002.3
16 13.08 З 6 15 км 1/1 600 м
[Cu hum]
+29.4 +24.2 74 +41 +41 опасность
перегрева
1005.4 1002.4
17 13.08 З 4 15 км ясно +28.4 +24.4 79 +40 +40 очень
душно
1005.6 1002.6
18 13.08 З 3 15 км ясно +27.9 +24.7 83 +40 +40 очень
душно
1005.9 1003.0 +31.4
19 13.08 З 3 15 км ясно +27.6 +23.8 80 +38 +38 очень
душно
1006.4 1003.4
20 13.08 ЮЗ 3 15 км ясно +27.4 +23.6 80 +37 +37 очень
душно
1006.6 1003.6
21 13.08 З 2 15 км ясно +27.1 +24.2 84 +38 +38 очень
душно
1006.6 1003.7
22 13.08 З 1 15 км ясно +26.6 +24.1 86 +37 +37 очень
душно
1006.6 1003.7
23 13.08 З 2 15 км ясно +26.5 +24.1 87 +37 +37 очень
душно
1006.5 1003.5
00 14.08 З 1 15 км ясно +26.0 +23.7 87 +35 +35 очень
душно
1006.4 1003.4
01 14.08 СЗ 1 15 км 1/1 450 м
[St]
+25.1 +23.6 91 +34 +34 очень
душно
1006.3 1003.3
02 14.08 СЗ 1 15 км ясно +24.6 +22.9 90 +33 +33 очень
душно
1006.3 1003.3
03 14.08 З 1 10 км ясно +24.4 +23.5 95 +33 +33 очень
душно
1006.5 1003.5
04 14.08 СЗ 2 12 км ясно +24.2 +22.4 90 +32 +32 очень
душно
1006.7 1003.7
05 14.08 СЗ 2 12 км ясно +26.2 +22.4 80 +34 +38 очень
душно
1007.0 1004.0
06 14.08 СВ 2 12 км 1/1 480 м
[Cu hum]
+28.2 +23.8 77 +39 +45 очень
душно
1007.4 1004.4 +23.8
07 14.08 СВ 2 12 км 1/1 420 м
[Cu hum]
+29.4 +24.3 74 +41 +53 опасность
перегрева
1007.9 1004.9
08 14.08 ЮЗ 4 12 км 1/1 660 м
[Cu hum]
+30.3 +23.4 67 +41 +50 опасность
перегрева
1008.0 1005.0
09 14.08 ЮЗ 6 15 км 1/1 600 м
[Cu hum]
+30.6 +24.0 68 +42 +50 опасность
перегрева
1008.1 1005.1
10 14.08 ЮЗ 7 15 км 1/1 660 м
[Cu hum]
+31.2 +23.9 65 +43 +48 опасность
перегрева
1007.9 1005.0
11 14.08 ЮЗ 7 15 км 1/1 720 м
[Cu hum]
+30.5 +24.2 69 +42 +47 опасность
перегрева
1008.0 1005.1
12 14.08 З 6 15 км 3/3 540 м
[Cu hum]
+30.0 +24.8 74 +43 +47 опасность
перегрева
1008.0 1005.0
13 14.08 З 8 15 км 1/1 540 м
[Cu hum]
+31.1 +24.9 70 +45 +46 опасность
перегрева
1007.6 1004.7
14 14.08 З 8 18 км 1/1 600 м
[Cu hum]
+30.3 +24.7 72 +43 +44 опасность
перегрева
1007.2 1004.2
15 14.08 З 8 18 км 1/1 600 м
[Cu hum]
+29.6 +24.8 75 +42 +42 опасность
перегрева
1006.9 1003.9
16 14.08 З 8
{13}
20 км 1/1 600 м
[Cu hum]
+29.0 +24.3 76 +41 +41 опасность
перегрева
1006.9 1003.9
17 14.08 З 7 30 км ясно +28.3 +24.1 78 +39 +39 очень
душно
1007.0 1004.0
18 14.08 З 8 30 км ясно +27.9 +24.5 82 +39 +39 очень
душно
1007.5 1004.5 +32.1
19 14.08 З 7 30 км ясно +27.5 +24.5 84 +39 +39 очень
душно
1007.6 1004.6
20 14.08 З 7 30 км ясно +27.2 +24.1 83 +38 +38 очень
душно
1007.5 1004.6
21 14.08 З 7 30 км ясно +26.7 +23.9 85 +37 +37 очень
душно
1007.4 1004.4
22 14.08 СЗ 5 30 км ясно +26.3 +24.1 88 +37 +37 очень
душно
1007.2 1004.2
23 14.08 З 3 30 км ясно +26.1 +24.1 89 +36 +36 очень
душно
1007.1 1004.1
00 15.08 З 4 30 км ясно +26.2 +24.0 88 +36 +36 очень
душно
1007.0 1004.0
01 15.08 З 3 30 км ясно +25.2 +19.5 71 +31 +31 очень
душно
1006.8 1003.8
02 15.08 С 1 30 км ясно +24.6 +19.3 72 +30 +30 очень
душно
1006.6 1003.6
03 15.08 С 1 20 км ясно +23.9 +18.6 72 +28 +28 душно 1006.9 1003.9
04 15.08 СЗ 2 25 км ясно +23.9 +20.3 80 +30 +30 очень
душно
1007.2 1004.2
05 15.08 СЗ 1 25 км ясно +26.5 +21.3 73 +34 +37 очень
душно
1007.4 1004.4
06 15.08 В 2 25 км ясно +29.2 +23.0 69 +39 +47 очень
душно
1007.5 1004.6 +23.6
07 15.08 Ю 2 25 км ясно +30.7 +22.2 61 +40 +51 опасность
солнечного
удара
1007.6 1004.6
08 15.08 ЮЗ 4 25 км ясно +29.8 +23.6 69 +40 +52 опасность
солнечного
удара
1007.4 1004.5
09 15.08 З 5 22 км 1/1 1050 м
[Cu hum]
+31.5 +22.7 60 +41 +50 опасность
перегрева
1007.1 1004.2
10 15.08 З 7 22 км 1/1 1350 м
[Sc]
+30.9 +23.3 64 +41 +46 опасность
перегрева
1006.7 1003.8
11 15.08 З 9 30 км 1/1 1500 м
[Cu hum]
+30.3 +23.9 69 +42 +44 опасность
перегрева
1006.3 1003.3
12 15.08 З 9
{13}
30 км 1/1 1500 м
[Cu hum]
+29.5 +23.6 71 +40 +42 очень
душно
1005.9 1002.9
13 15.08 З 9
{14}
35 км 1/1 1500 м
[Cu hum]
+29.4 +23.6 71 +40 +41 очень
душно
1005.5 1002.5
14 15.08 З 9
{14}
35 км 1/1 1500 м
[Cu hum]
+29.2 +23.1 70 +39 +40 очень
душно
1005.1 1002.2
15 15.08 З 9
{14}
35 км 1/1 1500 м
[Cu hum]
+29.2 +22.6 68 +39 +39 очень
душно
1004.6 1001.7
16 15.08 З 8 40 км ясно +28.3 +23.0 73 +38 +38 очень
душно
1004.6 1001.7
17 15.08 З 7 40 км ясно +27.2 +22.9 77 +36 +36 очень
душно
1004.7 1001.7
18 15.08 З 7 40 км ясно +27.0 +22.7 77 +36 +36 очень
душно
1004.7 1001.8 +31.8
19 15.08 З 7 40 км ясно +26.7 +22.9 80 +36 +36 очень
душно
1004.8 1001.8
20 15.08 З 7 40 км ясно +26.6 +22.1 76 +34 +34 очень
душно
1004.7 1001.7
21 15.08 З 7 40 км ясно +26.5 +20.6 70 +33 +33 очень
душно
1004.5 1001.5
22 15.08 З 6 40 км ясно +26.2 +20.9 73 +33 +33 очень
душно
1004.2 1001.2
23 15.08 З 5 40 км ясно +25.6 +21.3 77 +32 +32 очень
душно
1003.8 1000.8
00 16.08 З 4 40 км ясно +24.9 +20.6 77 +31 +31 очень
душно
1003.5 1000.5
01 16.08 З 3 40 км ясно +22.7 +17.9 74 +28 +28 душно 1003.3 1000.3
02 16.08 З 3 40 км ясно +23.7 +17.7 69 +28 +28 душно 1003.4 1000.4
03 16.08 З 2 30 км ясно +23.5 +17.6 69 +27 +27 душно 1003.7 1000.7
04 16.08 СЗ 2 40 км ясно +23.7 +15.0 58 +27 +27 жарко 1004.2 1001.3
05 16.08 СЗ 1 40 км ясно +26.1 +16.3 55 +30 +33 душно 1004.6 1001.6
06 16.08 З 4 40 км ясно +28.4 +18.3 54 +33 +38 очень
душно
1004.7 1001.7 +21.8
07 16.08 З 3 50 км ясно +28.3 +21.1 65 +36 +45 очень
душно
1004.7 1001.8
08 16.08 ЮЗ 4 50 км ясно +29.4 +21.1 61 +37 +47 очень
душно
1004.5 1001.6
09 16.08 ЮЗ 5 50 км ясно +29.7 +21.3 61 +38 +47 очень
душно
1004.3 1001.4
10 16.08 ЮЗ 6 40 км 1/1 1500 м
[Cu hum]
+29.2 +21.9 65 +38 +45 очень
душно
1004.3 1001.3
11 16.08 ЮЗ 7 35 км 1/1 1200 м
[Cu hum]
+29.9 +21.9 62 +38 +42 очень
душно
1004.2 1001.3
12 16.08 З 8 н/о н/о +30.5 +23.0 64 +40 +40 очень
душно
1003.9 1001.0
13 16.08 З 8 35 км 1/1 900 м
[Cu hum]
+29.8 +22.9 67 +40 +42 очень
душно
1003.7 1000.8
14 16.08 З 8 35 км 1/1 900 м
[Cu hum]
+29.8 +23.1 67 +40 +41 очень
душно
1003.6 1000.6
15 16.08 З 7 н/о н/о +28.6 +22.9 71 +38 +38 очень
душно
1003.2 1000.3
16 16.08 З 7 н/о н/о +28.1 +23.3 75 +38 +38 очень
душно
1003.1 1000.2

 

Местоположение метеостанции Akrotiri (Кипр): широта 34.58 долгота 32.98 высота над уровнем моря 23 м.

В архиве по умолчанию представлена погода в Akrotiri за последнюю неделю. Архивные данные за месяц целиком и за предыдущие месяцы, начиная с января 2011 года, Вы можете получить, выбрав интересующий диапазон дат из раскрывающегося списка и нажав кнопку "Ввод!".

Внимание! Время в таблицах - всемирное. Для получения местного времени необходимо прибавить поправку, которая в Akrotiri равна 2 ч.

Смотрите также архив погоды в соседних городах и на ближайших метеорологических станциях:

Погода в Paphos (Кипр) (48 км)
Погода в Larnaca (Кипр) (68 км)
Погода в Athalassa (Кипр) (74 км)
Погода в Nicosia (Кипр) (79 км)
Погода в Akdeniz (Кипр) (80 км)
Погода в Kyrenia (Кипр) (91 км)
Погода в Gecitkale (Кипр) (100 км)
Погода в Lefkoniko (Кипр) (101 км)
Погода в Unknown (Турция) (104 км)
Погода в Famagusta (Кипр) (108 км)

Пояснения к столбцам:

Ветер - указаны скорость ветра в м/с - средняя за 10 мин, порывы в срок и между сроками (в фигурных скобках) и направление, откуда дует ветер: С - северный, СВ - северо-восточный, В - восточный, ЮВ - юго-восточный, Ю - южный, ЮЗ - юго-западный, З - западный, СЗ - северо-западный.
Видимость - горизонтальная дальность видимости в метрах или километрах. При видимости от 1 до 10 км при отсутствии осадков обычно наблюдается дымка, при ухудшении видимости до 1 км и менее - туман. В сухую погоду видимость может ухудшаться дымом, пылью или мглою.
Явления - указаны атмосферные явления, наблюдавшиеся в срок или в последний час перед сроком; фигурными скобками обозначены явления, наблюдавшиеся между сроками (за 1-3 часа до срока); квадратными скобками обозначены град или гололедные отложения с указанием их диаметра в мм.
Облачность - указаны через наклонную черту общая и нижняя облачность в баллах и высота нижней границы облаков в метрах; квадратными скобками обозначены формы облаков: Ci - перистые, Cs - перисто-слоистые, Cc - перисто-кучевые, Ac - высококучевые, As - высокослоистые, Sc - слоисто-кучевые, Ns - слоисто-дождевые, Cu - кучевые, Cb - кучево-дождевые. Подробнее классификацию облаков см. в Атласе облаков (PDF).
T - Температура воздуха - температура, измеренная на высоте 2 м над землей.
Td - Температура точки росы - температура, при понижении до которой содержащийся в воздухе водяной пар достигнет насыщения.
f - Относительная влажность воздуха - влажноcть воздуха, измеренная на высоте 2 м над землей.
Te - Эффективная температура - температура, которую ощущает одетый по сезону человек в тени. Характеристика душности погоды. При расчете учитывается влияние влажности воздуха и скорости ветра на теплоощущения человека.
Tes - Эффективная температура на солнце - температура, которую ощущает человек, с поправкой на солнечный нагрев. Характеристика знойности погоды. Зависит от высоты солнца над горизонтом, облачности и скорости ветра. Ночью, в пасмурную погоду, а также при ветре 12 м/с и более поправка равна нулю.
P - Атмосферное давление - приведенное к уровню моря атмосферное давление.
Po - Атмосферное давление - измеренное на уровне метеостанции атмосферное давление.
Tmin - Минимальная температура - минимум температуры воздуха на высоте 2 м над землей.
Tmax - Максимальная температура - максимум температуры воздуха на высоте 2 м над землей.
R - Количество осадков - Количество выпавших осадков за период времени, мм. При наведении курсора мыши на число - период времени, за который выпало указанное количество осадков.
R24 - Количество осадков - Количество выпавших осадков за 24 часа, мм.
S - Снежный покров - Высота снежного покрова, см. При наведении курсора мыши на число - состояние снежного покрова и степень покрытия местности в баллах.